Location: Ottawa
(45.4167°N, 75.7000°W)
Time: 22:04:48
(UTC-04:00)

Tiangong 2 - Pass Details

Date: 15 October 2017
Orbit: 388 x 391 km, 42.8° (Epoch: 23 October)

Event Time Altitude Azimuth Distance (km) Brightness Sun altitude
Exits shadow 05:35:47 53° 185° (S) 486 1.4 -18.9°
Maximum altitude 05:35:49 53° 181° (S) 486 1.4 -18.9°
Drops below altitude 10° 05:38:57 10° 104° (ESE) 1,421 5.0 -18.3°
Sets 05:41:03 0° 99° (E) 2,277 6.5 -18.0°
